Weather in Eleninka

Russia / Chelyabinsk Oblast     53°06′58″N   59°52′26″E
temp.,
°C
wind,
m/s
gust,
m/s
humid.,
%
clouds,
%
prec.,
mm/h
press.,
hPa
HPBL,
m
27 february, sat
sat2723:00−26s349911 0.0 102839
02:00−26sse3410097 0.0 102667
05:00−26sse3610098 0.1 102497
08:00−22se61197100 0.1 1020298
11:00−15sse71295100 0.8 1017617
14:00−11sse81393100 1.4 1013799
17:00−10sse71293100 2.2 1010751
20:00−10sse71393100 0.6 1008537
28 february, sun
sun2823:00−9sse4995100 1.2 1007303
02:00−9sse339695 0.3 100543
05:00−9ese229693 0.5 100424
08:00−7ene3396100 0.4 100278
11:00−6ne3496100 1.3 1001221
14:00−5nne3495100 0.6 1001256
17:00−6nne3496100 1.6 1002258
20:00−9nne3596100 0.5 100498
1 march, mon
mon123:00−12n339695 0.6 100731
02:00−15nne239773 0.0 101020
05:00−17ne229778 0.1 101220
08:00−16ene229695 0.2 101421
11:00−13ese229289 0.3 1015181
14:00−11se228999 0.1 1016315
17:00−11se2394100 0.3 1016212
20:00−14ese2396100 0.2 101736
2 march, tue
tue223:00−15e229697 0.4 101824
02:00−16e129793 0.1 101820
05:00−16ene019794 0.3 101820
08:00−17ssw019895 0.1 101820
11:00−15wsw129495 0.1 1018164
14:00−13wsw2390100 0.0 1017295
17:00−15sw359476 0.0 1016161
20:00−17sw34973 0.0 101740
3 march, wed
wed323:00−17sw479233 0.0 101798
02:00−18sw579291 0.0 1016135
05:00−18ssw599696 0.0 1014189
08:00−16ssw61096100 0.1 1013258
11:00−12ssw61294100 0.4 1011350
14:00−7ssw71392100 0.3 1010550
17:00−6s71292100 0.3 1008619
20:00−6s71494100 0.3 1006554